Location: Quartzsite
(33.6639°N, 114.2299°W)
Time: 03:37:14
(UTC-07:00)

N. Korean satellite - Visible Passes

Search period start: 21 September 2018 00:00
Search period end: 01 October 2018 00:00
Orbit: 458 x 511 km, 97.2° (Epoch: 20 September)

Date Brightness Start Highest point End Pass type
(mag) Time Alt. Az. Time Alt. Az. Time Alt. Az.
21 Sep 9.7 19:04:16 10° SW 19:06:51 19° W 19:09:28 10° NW visible
24 Sep 10.5 19:26:55 10° W 19:27:24 10° W 19:27:53 10° W visible
25 Sep 9.5 19:00:07 10° SSW 19:02:54 22° W 19:05:43 10° NW visible
28 Sep 10.2 19:22:04 10° WSW 19:23:25 12° W 19:24:46 10° WNW visible
29 Sep 9.3 18:55:58 10° SSW 18:58:55 25° W 19:01:55 10° NW visible
